Location: Sternwarte_Laufen
(47.9344°N, 12.9346°E)
Time: 16:19:41
(UTC+02:00)

ISS - Pass Details

Date: 16 May 2026
Orbit: 414 x 424 km, 51.6° (Epoch: 21 May)

Event Time Altitude Azimuth Distance (km) Brightness Sun altitude
Rises 00:58:50 0° 291° (WNW) 2,356 0.3 -23.0°
Reaches altitude 10° 01:01:00 10° 284° (WNW) 1,492 -0.8 -23.0°
Enters shadow 01:01:10 11° 283° (WNW) 1,423 -0.9 -23.0°
